7 * 24
多渠道服务支持
STARLINK-34318 是 SpaceX Starlink 项目中的一颗低轨通信卫星,属于第三代 Starlink 卫星(v1.5 或 v2 架构)。它于 2023 年发射,部署在约 550 公里的轨道高度,用于提供全球宽带互联网服务。该卫星采用先进推进系统和激光通信技术,支持高速、低延迟的网络连接。作为 Starlink 卫星群的一部分,它有助于扩大 SpaceX 的全球互联网覆盖,并增强系统的冗余与稳定性。
美国
(US)
| 数据来源 | 国际轨道数据 |
| 星历时间: | 2025-11-08T12:46:24+0800 1天前 查看轨道信息 |
| 半长轴: | 6853.395km |
| 偏心率: | 0.0001062 |
| 轨道倾角: | 53.160° |
| 近地点辐角 | 95.959° |
| 升交点赤经 | 244.006° |
| 平近点角 | 264.153° |
| 近地点: | 474.532km |
| 远地点: | 475.988km |
| 周期: | 94.106分钟 |
| 每日圈数: | 15.301857 |